Flag for Sweden Weather past 2 weeks in Västerås, Sweden

Now
54 °F

Passing clouds.


Feels Like: N/A
Forecast: 46 / 60 °F
Wind: N/A

Location: Vasteras / Hasslo

Current Time: Sep 5, 2015 at 1:39:32 AM

Latest Report: Sep 5, 2015 at 1:20 AM


Visibility: N/A

Pressure: 29.62 "Hg

Humidity: 88%

Dew point: 50 °F

Location of VästeråsLocation

Historic Weather in Västerås — Graph

°F

Västerås temperature yesterday

Maximum temperature yesterday: 63 °F (at 2:20 PM)
Minimum temperature yesterday: 46 °F (at 1:50 AM)
Average temperature yesterday: 55 °F

Past Weeks' High & Low Weather Summary

 TemperatureHumidityPressure
High79 °F (Aug 25, 1:50 PM)100% (Aug 22, 3:20 AM)30.42 "Hg (Aug 22, 3:20 AM)
Low43 °F (Aug 21, 5:50 AM)36% (Aug 22, 1:20 PM)29.59 "Hg (Aug 27, 4:50 PM)
Average61 °F75%29.97 "Hg
* Reported Aug 21 12:20 AM — Sep 5 12:20 AM, Västerås, Weather by CustomWeather, © 2015

Note: Actual official high and low records may vary slightly from our data, if they occured in-between our weather recording intervals... More about our weather records

Advertising

Västerås weather history for previous 24 hours

 ConditionsComfort  
Time TempWeatherWind HumidityBarometerVisibility
12:20 AM
Sat, Sep 5
54 °FPassing clouds.N/A94%29.65 "HgN/A
11:20 PM
Fri, Sep 4
55 °FCool.N/A88%29.65 "HgN/A
10:50 PM55 °FPassing clouds.N/A88%29.68 "HgN/A
10:20 PM55 °FClear.6 mph88%29.68 "Hg10 mi
9:50 PM57 °FClear.6 mph82%29.68 "Hg10 mi
9:20 PM57 °FClear.7 mph82%29.68 "Hg10 mi
8:50 PM57 °FClear.6 mph82%29.68 "Hg10 mi
8:20 PM57 °FSunny.6 mph82%29.71 "Hg10 mi
7:50 PM57 °FSunny.7 mph82%29.71 "Hg10 mi
7:20 PM57 °FSunny.3 mph77%29.71 "Hg10 mi
6:50 PM59 °FPassing clouds.8 mph72%29.71 "HgN/A
6:20 PM59 °FPassing clouds.6 mph77%29.71 "HgN/A
5:50 PM59 °FSunny.6 mph72%29.74 "Hg10 mi
5:20 PM61 °FSunny.7 mph68%29.74 "Hg10 mi
4:50 PM61 °FSunny.7 mph68%29.74 "Hg10 mi
4:20 PM59 °FPassing clouds.7 mph72%29.77 "HgN/A
3:50 PM59 °FScattered clouds.7 mph77%29.77 "HgN/A
3:20 PM63 °FScattered clouds.7 mph73%29.77 "HgN/A
2:50 PM61 °FScattered clouds.9 mph72%29.80 "HgN/A
2:20 PM63 °FScattered clouds.2 mph73%29.80 "HgN/A
1:50 PM61 °FScattered clouds.7 mph72%29.80 "HgN/A
1:20 PM61 °FMostly cloudy.7 mph72%29.80 "HgN/A
12:50 PM61 °FScattered clouds.No wind72%29.83 "HgN/A
12:20 PM59 °FPartly sunny.No wind72%29.83 "HgN/A
11:50 AM59 °FPartly sunny.2 mph77%29.83 "HgN/A
11:20 AM59 °FScattered clouds.No wind77%29.83 "HgN/A
10:50 AM59 °FScattered clouds.8 mph77%29.83 "HgN/A
10:20 AM57 °FScattered clouds.3 mph82%29.86 "HgN/A
9:50 AM54 °FScattered clouds.2 mph94%29.86 "HgN/A
9:20 AM52 °FScattered clouds.2 mph100%29.86 "HgN/A
8:50 AM50 °FScattered clouds.No wind100%29.86 "HgN/A
8:20 AM50 °FPassing clouds.2 mph100%29.86 "HgN/A
7:50 AM50 °FScattered clouds.3 mph94%29.86 "HgN/A
7:20 AM48 °FScattered clouds.5 mph100%29.86 "HgN/A
6:50 AM48 °FPassing clouds.5 mph100%29.86 "HgN/A
6:20 AM48 °FFog.7 mph100%29.89 "Hg1 mi
5:50 AM48 °FFog.9 mph94%29.89 "Hg1 mi
5:20 AM48 °FFog.N/A100%29.89 "Hg0 mi
4:50 AM48 °FFog.N/A100%29.89 "Hg0 mi
4:20 AM48 °FDrizzle. Dense fog.N/A100%29.89 "Hg0 mi
3:50 AM48 °FDrizzle. Dense fog.N/A100%29.89 "Hg0 mi
3:20 AM48 °FFog.N/A100%29.89 "Hg0 mi
2:50 AM48 °FLight rain. Dense fog.N/A94%29.89 "Hg0 mi
2:20 AM46 °FFog.N/A100%29.89 "Hg0 mi
1:50 AM46 °FFog.N/A93%29.89 "Hg0 mi
1:20 AM48 °FFog.N/A94%29.89 "Hg0 mi
Weather by CustomWeather, © 2015

See weather overviewHow to use our weather pages